OPS 4682 DEB, 38387

Orbit data source: Space-Track

OPS 4682 DEB, 38387 is space debris in LEO originally from a launch on Sat, 03 Apr 1965 UTC launched from the Air Force Western Test Range (AFWTR). Debris objects in space refer to the collection of defunct objects orbiting the Earth. Examples of debris include non-operational satellites, rocket bodies, and fragments generated from explosions, collisions, or faulty payload assembly.

Loading next visibility...
Identifier
38387, 1965-027CQ
Orbit
LEO
Country
Flag of USUS
Related business
Manufacturer
Unknown
Mission
Spacecraft
Bus & Motor
Unknown
Mass
Unknown
Launch date (UTC)
1965-04-03 (61 years ago)
Launch vehicle
Unknown
Launch site
Air Force Western Test Range (AFWTR)
Object type
Payload
Rocket body
Debris
Shape & HBR
Unknown shape, 0.1 m
Radar Cross Section
Small (<0.1 m²)

Expand to show TLE details & history
Last TLE update: 21 hours ago

TLE from 21 hours ago
0 OPS 4682 DEB
1 38387U 65027CQ  25294.45509019 -.00000024  00000-0 -11059-3 0  9991
2 38387  90.2465   0.0373 0023282  18.5603 341.6361 12.96347440572918
Epoch: 2025-10-21T10:55Z
TLE epoch observation values (Epoch: 2025-10-21T10:55:19.792Z)
Latitude
-0.00003°
Longitude
166.06203°
Altitude
1,262.397 km
Speed
7.232 km/s
True Right ascension
00h 00m 08s
True Declination
0° 00' 00"
Sunlit
Object was in full shadow at epoch
Visualization orbit readout
Latitude
Unknown
Longitude
Unknown
Altitude
Unknown
Speed
Unknown
Apparent Right ascension
Unknown
Apparent Declination
Unknown
Sunlit
N/A
Visualization observer readout
Local Sidereal Time
02:48:54
Azimuth
Unknown
Elevation
Unknown
Doppler factor
Unknown
Orbital elements
Apogee altitude
1,291.378 km
Perigee altitude
1,255.749 km
Semi-major axis
7,651.701 km
Eccentricity
0.00233
Inclination
90.2465°
RAAN
0.0373°
Arg. of periapsis
18.5603°
True anomaly
341.55181°
Mean anomaly
341.6361°
Eccentric anomaly
341.59398°
Mean motion
3.2427 °/min
Orbital period
111.02 mins
BSTAR
-0.00011059
Loading maneuver chart data...
Computing Atmospheric mass density...
Loading historical data...
Loading historical data...
Loading historical data...
Loading historical data...
Loading historical data...
Loading historical data...
Loading historical data...

Documentation

Showing up to 5 results
|